�������l�o���
Date,Time,MP-1(��Sv/h),MP-2(��Sv/h),MP-3(��Sv/h),MP-4(��Sv/h),MP-5(��Sv/h),MP-6(��Sv/h),MP-7(��Sv/h),MP-8(��Sv/h),����,����(m/s),���J
2024/06/14,00:00,0.515,0.789,0.495,0.977,0.718,0.322,0.561,0.517,�k�k��,1.7,��
2024/06/14,00:10,0.516,0.791,0.496,0.979,0.719,0.323,0.561,0.515,�k��,2.2,��
2024/06/14,00:20,0.517,0.789,0.495,0.979,0.718,0.323,0.560,0.516,�k��,2.3,��
2024/06/14,00:30,0.516,0.790,0.495,0.978,0.720,0.322,0.560,0.516,�k��,3.2,��
2024/06/14,00:40,0.516,0.790,0.496,0.978,0.719,0.323,0.560,0.516,���k��,4.2,��
2024/06/14,00:50,0.516,0.789,0.494,0.979,0.718,0.322,0.561,0.516,�k��,5.6,��
2024/06/14,01:00,0.514,0.788,0.494,0.977,0.720,0.322,0.561,0.516,�k��,5.2,��
2024/06/14,01:10,0.517,0.788,0.495,0.978,0.721,0.320,0.561,0.516,�k��,6.0,��
2024/06/14,01:20,0.516,0.788,0.495,0.979,0.720,0.321,0.561,0.514,�k��,5.0,��
2024/06/14,01:30,0.516,0.788,0.495,0.979,0.718,0.322,0.561,0.515,�k��,6.5,��
2024/06/14,01:40,0.515,0.787,0.495,0.978,0.716,0.320,0.559,0.514,�k��,5.7,��
2024/06/14,01:50,0.517,0.788,0.494,0.980,0.718,0.321,0.562,0.517,�k��,4.8,��
2024/06/14,02:00,0.515,0.787,0.495,0.978,0.718,0.321,0.560,0.515,�k��,4.0,��
2024/06/14,02:10,0.514,0.788,0.494,0.979,0.718,0.321,0.561,0.514,�k��,4.5,��
2024/06/14,02:20,0.516,0.788,0.495,0.979,0.717,0.322,0.562,0.515,���k��,4.0,��
2024/06/14,02:30,0.515,0.786,0.495,0.977,0.719,0.320,0.561,0.516,���k��,3.5,��
2024/06/14,02:40,0.516,0.786,0.494,0.980,0.718,0.320,0.560,0.516,�k��,4.5,��
2024/06/14,02:50,0.515,0.787,0.494,0.978,0.717,0.320,0.559,0.516,�k��,5.3,��
2024/06/14,03:00,0.514,0.788,0.495,0.979,0.719,0.321,0.560,0.516,�k��,5.7,��
2024/06/14,03:10,0.515,0.787,0.496,0.977,0.719,0.320,0.560,0.514,�k��,6.7,��
2024/06/14,03:20,0.515,0.788,0.495,0.981,0.718,0.321,0.560,0.515,�k��,5.3,��
2024/06/14,03:30,0.514,0.786,0.494,0.978,0.717,0.320,0.559,0.515,�k��,4.5,��
2024/06/14,03:40,0.514,0.788,0.495,0.978,0.718,0.320,0.561,0.514,���k��,4.2,��
2024/06/14,03:50,0.514,0.789,0.493,0.979,0.718,0.320,0.561,0.516,���k��,1.9,��
2024/06/14,04:00,0.514,0.786,0.494,0.979,0.718,0.321,0.561,0.515,���k��,1.2,��
2024/06/14,04:10,0.513,0.787,0.494,0.977,0.718,0.321,0.562,0.516,��,1.2,��
2024/06/14,04:20,0.513,0.787,0.494,0.977,0.718,0.320,0.560,0.515,�쐼,1.1,��
2024/06/14,04:30,0.515,0.788,0.494,0.976,0.717,0.321,0.562,0.516,��쐼,1.1,��
2024/06/14,04:40,0.514,0.787,0.495,0.978,0.719,0.320,0.559,0.516,��쐼,0.8,��
2024/06/14,04:50,0.514,0.788,0.494,0.978,0.717,0.320,0.561,0.516,��쐼,1.2,��
2024/06/14,05:00,0.516,0.788,0.494,0.978,0.716,0.321,0.560,0.514,��쐼,1.4,��
2024/06/14,05:10,0.516,0.787,0.495,0.976,0.718,0.320,0.560,0.515,�쐼,0.8,��
2024/06/14,05:20,0.515,0.787,0.496,0.977,0.718,0.321,0.561,0.515,�쐼,0.6,��
2024/06/14,05:30,0.515,0.787,0.495,0.977,0.717,0.320,0.562,0.515,-,CALM,��
2024/06/14,05:40,0.515,0.787,0.494,0.976,0.719,0.321,0.561,0.516,�k�k��,1.2,��
2024/06/14,05:50,0.514,0.788,0.493,0.978,0.717,0.321,0.561,0.514,�k�k��,1.2,��
2024/06/14,06:00,0.514,0.787,0.493,0.978,0.717,0.321,0.561,0.515,�k�k��,0.8,��
2024/06/14,06:10,0.515,0.788,0.492,0.977,0.717,0.321,0.562,0.515,-,CALM,��
2024/06/14,06:20,0.516,0.786,0.492,0.980,0.717,0.322,0.561,0.515,-,CALM,��
2024/06/14,06:30,0.514,0.786,0.495,0.979,0.718,0.320,0.560,0.516,�k��,0.9,��
2024/06/14,06:40,0.515,0.785,0.494,0.977,0.718,0.321,0.562,0.516,�k�k��,1.2,��
2024/06/14,06:50,0.514,0.786,0.496,0.977,0.718,0.319,0.562,0.516,-,CALM,��
2024/06/14,07:00,0.512,0.785,0.494,0.979,0.718,0.320,0.563,0.517,���k��,0.6,��
2024/06/14,07:10,0.514,0.787,0.495,0.977,0.716,0.321,0.561,0.516,��,1.1,��
2024/06/14,07:20,0.516,0.786,0.496,0.976,0.717,0.321,0.562,0.515,��,1.7,��
2024/06/14,07:30,0.515,0.786,0.494,0.979,0.718,0.318,0.561,0.515,��쓌,1.9,��
2024/06/14,07:40,0.515,0.786,0.495,0.979,0.717,0.319,0.562,0.515,�쓌,2.2,��
2024/06/14,07:50,0.513,0.787,0.494,0.978,0.716,0.319,0.559,0.515,���쓌,2.3,��
2024/06/14,08:00,0.515,0.788,0.494,0.980,0.716,0.319,0.560,0.514,�쓌,2.0,��
2024/06/14,08:10,0.514,0.788,0.493,0.978,0.717,0.320,0.560,0.513,���쓌,1.7,��
2024/06/14,08:20,0.516,0.787,0.492,0.979,0.718,0.321,0.561,0.515,�쓌,2.0,��
2024/06/14,08:30,0.516,0.786,0.492,0.978,0.716,0.319,0.560,0.514,�쓌,3.0,��
2024/06/14,08:40,0.513,0.788,0.493,0.978,0.718,0.320,0.559,0.516,�쓌,2.8,��
2024/06/14,08:50,0.515,0.788,0.493,0.979,0.716,0.319,0.558,0.515,�쓌,2.6,��
2024/06/14,09:00,0.516,0.788,0.492,0.980,0.717,0.319,0.560,0.515,�쓌,1.7,��
2024/06/14,09:10,0.514,0.788,0.494,0.977,0.716,0.319,0.560,0.514,�쓌,2.0,��
2024/06/14,09:20,0.514,0.785,0.492,0.979,0.717,0.319,0.559,0.515,���쓌,1.5,��
2024/06/14,09:30,0.515,0.786,0.493,0.977,0.716,0.319,0.559,0.513,��,1.9,��
2024/06/14,09:40,0.513,0.789,0.493,0.979,0.719,0.318,0.560,0.513,��,2.6,��
2024/06/14,09:50,0.512,0.787,0.493,0.978,0.717,0.319,0.559,0.514,���k��,3.0,��
2024/06/14,10:00,0.515,0.787,0.493,0.979,0.717,0.319,0.558,0.514,���k��,4.3,��
2024/06/14,10:10,0.513,0.786,0.492,0.978,0.719,0.319,0.558,0.513,���k��,3.5,��
2024/06/14,10:20,0.512,0.789,0.492,0.979,0.717,0.318,0.560,0.513,�k��,3.3,��
2024/06/14,10:30,0.512,0.788,0.492,0.976,0.718,0.318,0.559,0.513,�k��,3.7,��
2024/06/14,10:40,0.515,0.784,0.493,0.977,0.716,0.319,0.559,0.516,�k�k��,4.1,��
2024/06/14,10:50,0.514,0.787,0.493,0.978,0.718,0.319,0.559,0.514,�k�k��,4.0,��
2024/06/14,11:00,0.514,0.789,0.493,0.977,0.719,0.320,0.560,0.513,���k��,3.8,��
2024/06/14,11:10,0.516,0.788,0.492,0.977,0.719,0.319,0.560,0.513,�k��,4.0,��
2024/06/14,11:20,0.515,0.787,0.494,0.974,0.719,0.318,0.558,0.515,�k��,3.5,��
2024/06/14,11:30,0.515,0.790,0.493,0.975,0.719,0.318,0.560,0.514,���k��,3.2,��
2024/06/14,11:40,0.515,0.789,0.494,0.975,0.719,0.319,0.559,0.514,���k��,4.2,��
2024/06/14,11:50,0.516,0.788,0.495,0.978,0.717,0.319,0.559,0.515,�k��,3.1,��
2024/06/14,12:00,0.515,0.789,0.493,0.977,0.719,0.319,0.558,0.514,���k��,3.7,��
2024/06/14,12:10,0.515,0.790,0.494,0.977,0.718,0.320,0.558,0.515,��,2.5,��
2024/06/14,12:20,0.514,0.790,0.493,0.979,0.718,0.318,0.559,0.514,��,2.6,��
2024/06/14,12:30,0.515,0.789,0.494,0.978,0.717,0.319,0.558,0.516,���쓌,3.6,��
2024/06/14,12:40,0.516,0.789,0.494,0.978,0.720,0.318,0.558,0.514,���쓌,2.9,��
2024/06/14,12:50,0.515,0.789,0.494,0.976,0.717,0.319,0.559,0.514,�쓌,3.8,��
2024/06/14,13:00,0.515,0.790,0.494,0.978,0.718,0.319,0.559,0.516,��,2.6,��
2024/06/14,13:10,0.515,0.789,0.493,0.978,0.719,0.319,0.560,0.516,���쓌,3.0,��
2024/06/14,13:20,0.514,0.788,0.494,0.976,0.719,0.320,0.559,0.515,���쓌,3.5,��
2024/06/14,13:30,0.516,0.788,0.494,0.975,0.721,0.319,0.558,0.514,���쓌,2.3,��
2024/06/14,13:40,0.514,0.789,0.494,0.976,0.720,0.319,0.559,0.514,���쓌,3.0,��
2024/06/14,13:50,0.516,0.789,0.493,0.977,0.719,0.319,0.559,0.515,���쓌,2.6,��
2024/06/14,14:00,0.516,0.787,0.493,0.976,0.719,0.318,0.557,0.515,���쓌,3.4,��
2024/06/14,14:10,0.515,0.790,0.493,0.979,0.719,0.319,0.558,0.515,�쓌,3.4,��
2024/06/14,14:20,0.516,0.788,0.495,0.979,0.717,0.318,0.559,0.515,�쓌,3.2,��
2024/06/14,14:30,0.516,0.788,0.495,0.979,0.719,0.319,0.560,0.515,�쓌,3.7,��
2024/06/14,14:40,0.514,0.790,0.493,0.977,0.720,0.320,0.561,0.514,�쓌,3.1,��
2024/06/14,14:50,0.515,0.789,0.493,0.977,0.719,0.319,0.558,0.515,�쓌,3.4,��
2024/06/14,15:00,0.516,0.789,0.497,0.979,0.720,0.320,0.559,0.515,�쓌,3.3,��
2024/06/14,15:10,0.515,0.790,0.494,0.978,0.719,0.320,0.559,0.515,�쓌,3.8,��
2024/06/14,15:20,0.514,0.792,0.495,0.982,0.720,0.319,0.558,0.515,�쓌,4.5,��
2024/06/14,15:30,0.516,0.788,0.493,0.978,0.721,0.319,0.558,0.514,�쓌,5.1,��
2024/06/14,15:40,0.515,0.791,0.495,0.979,0.718,0.320,0.558,0.515,��쓌,3.9,��
2024/06/14,15:50,0.513,0.790,0.492,0.980,0.719,0.319,0.559,0.514,��쓌,4.9,��
2024/06/14,16:00,0.516,0.789,0.492,0.977,0.720,0.319,0.558,0.515,��쓌,4.9,��
2024/06/14,16:10,0.516,0.791,0.494,0.979,0.718,0.317,0.559,0.512,��쓌,5.1,��
2024/06/14,16:20,0.517,0.789,0.495,0.979,0.719,0.318,0.558,0.514,��,5.2,��
2024/06/14,16:30,0.515,0.791,0.496,0.977,0.719,0.318,0.559,0.513,��쓌,5.8,��
2024/06/14,16:40,0.515,0.790,0.493,0.978,0.719,0.320,0.557,0.515,��쓌,6.4,��
2024/06/14,16:50,0.516,0.787,0.494,0.978,0.718,0.318,0.560,0.515,��쓌,5.7,��
2024/06/14,17:00,0.515,0.790,0.493,0.980,0.718,0.318,0.558,0.515,��쓌,7.2,��
2024/06/14,17:10,0.516,0.789,0.494,0.978,0.721,0.319,0.558,0.514,��쓌,7.4,��
2024/06/14,17:20,0.515,0.789,0.494,0.981,0.718,0.319,0.557,0.513,��,7.1,��
2024/06/14,17:30,0.513,0.789,0.494,0.980,0.719,0.319,0.557,0.513,��쓌,7.1,��
2024/06/14,17:40,0.514,0.790,0.494,0.978,0.720,0.320,0.557,0.513,��,7.1,��
2024/06/14,17:50,0.513,0.789,0.494,0.980,0.719,0.319,0.556,0.514,��,7.0,��
2024/06/14,18:00,0.515,0.788,0.494,0.982,0.720,0.319,0.558,0.515,��,7.1,��
2024/06/14,18:10,0.516,0.791,0.494,0.981,0.720,0.319,0.557,0.515,��쓌,6.5,��
2024/06/14,18:20,0.513,0.789,0.493,0.981,0.719,0.319,0.557,0.515,��,6.5,��
2024/06/14,18:30,0.515,0.790,0.493,0.979,0.720,0.319,0.557,0.515,��,6.4,��
2024/06/14,18:40,0.514,0.789,0.493,0.982,0.721,0.321,0.557,0.515,��,4.6,��
2024/06/14,18:50,0.513,0.791,0.494,0.981,0.720,0.321,0.557,0.514,��,4.9,��
2024/06/14,19:00,0.515,0.790,0.493,0.982,0.720,0.320,0.556,0.517,��,5.5,��
2024/06/14,19:10,0.515,0.792,0.494,0.981,0.722,0.320,0.557,0.515,��,6.0,��
2024/06/14,19:20,0.515,0.792,0.495,0.979,0.721,0.320,0.556,0.515,��,6.5,��
2024/06/14,19:30,0.516,0.791,0.495,0.980,0.721,0.321,0.556,0.517,��,7.1,��
2024/06/14,19:40,0.514,0.792,0.496,0.983,0.722,0.321,0.557,0.516,��,6.6,��
2024/06/14,19:50,0.515,0.791,0.496,0.981,0.721,0.321,0.558,0.515,��,6.1,��
2024/06/14,20:00,0.515,0.792,0.495,0.980,0.722,0.321,0.558,0.516,��,6.2,��
2024/06/14,20:10,0.515,0.791,0.495,0.983,0.721,0.322,0.558,0.516,��,5.3,��
2024/06/14,20:20,0.516,0.792,0.495,0.983,0.722,0.320,0.557,0.515,��,5.2,��
2024/06/14,20:30,0.515,0.793,0.498,0.984,0.721,0.320,0.558,0.516,��,4.9,��
2024/06/14,20:40,0.514,0.791,0.496,0.983,0.721,0.319,0.558,0.514,��,4.9,��
2024/06/14,20:50,0.516,0.789,0.496,0.981,0.721,0.322,0.557,0.515,��,4.4,��
2024/06/14,21:00,0.514,0.792,0.495,0.983,0.721,0.322,0.558,0.515,��,4.2,��
2024/06/14,21:10,0.516,0.790,0.495,0.982,0.723,0.320,0.557,0.515,��,4.6,��
2024/06/14,21:20,0.516,0.792,0.496,0.982,0.722,0.320,0.558,0.515,��쓌,3.8,��
2024/06/14,21:30,0.517,0.792,0.496,0.981,0.721,0.320,0.557,0.514,��쓌,3.0,��
2024/06/14,21:40,0.516,0.791,0.496,0.984,0.720,0.320,0.557,0.516,��쓌,2.6,��
2024/06/14,21:50,0.517,0.791,0.495,0.982,0.719,0.318,0.557,0.516,��,2.3,��
2024/06/14,22:00,0.518,0.792,0.495,0.980,0.721,0.321,0.558,0.516,��,1.4,��
2024/06/14,22:10,0.517,0.791,0.497,0.982,0.720,0.319,0.558,0.517,��쐼,0.6,��
2024/06/14,22:20,0.518,0.791,0.495,0.983,0.722,0.320,0.557,0.514,-,CALM,��
2024/06/14,22:30,0.516,0.791,0.495,0.984,0.722,0.320,0.557,0.516,-,CALM,��
2024/06/14,22:40,0.516,0.791,0.496,0.983,0.722,0.320,0.558,0.516,���쓌,0.9,��
2024/06/14,22:50,0.517,0.791,0.495,0.984,0.721,0.319,0.558,0.515,�쓌,1.1,��
2024/06/14,23:00,0.515,0.793,0.496,0.983,0.722,0.320,0.559,0.516,-,CALM,��
2024/06/14,23:10,0.516,0.791,0.496,0.984,0.721,0.321,0.558,0.515,�k�k��,0.6,��
2024/06/14,23:20,0.516,0.791,0.495,0.980,0.722,0.319,0.558,0.515,��,0.6,��
2024/06/14,23:30,0.517,0.792,0.496,0.984,0.721,0.319,0.558,0.515,���쓌,0.9,��
2024/06/14,23:40,0.517,0.792,0.495,0.984,0.722,0.320,0.558,0.514,�쓌,0.8,��
2024/06/14,23:50,0.517,0.791,0.495,0.981,0.723,0.321,0.558,0.516,��,0.6,��
